Simultaneous Nadir Overpasses (SNOs) Predictions

Prediction of SNOs between METOP-B and NOAA-19 Satellite Orbit:

Table of predicted SNOs for the next 14.0 days since TLE Epoch: 9/26/2020
Index Date (METOP-B) Time (METOP-B) Lat,Lon (METOP-B) SZA (METOP-B ) Date (NOAA-19) Time (NOAA-19) Lat,Lon (NOAA-19) SZA (NOAA-19 ) Distance(km) Time Diff (sec)
1 09/29/2020 03:23:25 -80.37, -24.35 95.91 09/29/2020 03:22:22 -80.36, -29.27 96.31 91.62 63
2 09/29/2020 04:14:12 80.19, 140.83 83.77 09/29/2020 04:13:18 80.18, 140.97 83.76 2.77 54
3 09/29/2020 05:04:54 -80.17, -52.00 96.24 09/29/2020 05:04:14 -80.19, -51.97 96.23 2.39 40
4 09/29/2020 05:55:34 80.18, 115.37 83.78 09/29/2020 05:55:19 80.19, 115.31 83.79 1.99 15
5 09/29/2020 06:46:15 -80.19, -77.15 96.18 09/29/2020 06:46:14 -80.18, -77.30 96.20 2.96 1
6 09/29/2020 07:36:56 80.17, 89.92 83.79 09/29/2020 07:37:19 80.18, 89.97 83.82 1.88 23
7 09/29/2020 08:27:37 -80.18,-102.60 96.17 09/29/2020 08:28:14 -80.17,-102.63 96.17 1.07 37
8 09/29/2020 09:18:17 80.18, 64.77 83.85 09/29/2020 09:19:19 80.17, 64.64 83.85 2.97 62
